When you browse on this site, cookies collect data to enhance your experience and personalize the content and advertising you see.
Visit our Privacy Policy to learn more. By continuing to use the site, you agree to this use of cookies and data.
  • In Hungary
  • List of Countries
  • For 7 days
  • Water Temperature
  • Satellite Maps
  • Weather Map
  • News
  • Weather Widgets
  • user-avatar
    Login

    Hourly Weather Pinhao

    Today, 18 January, Friday

    Time Temperature Precipitation Wind Pressure Humidity
    00:00 +21°C° 0.1 mm 1 mps 674 mmHg 94%
    01:00 +20°C° 0 mm 1 mps 674 mmHg 94%
    02:00 +20°C° 0 mm 1 mps 673 mmHg 95%
    03:00 +20°C° 0 mm 1 mps 673 mmHg 96%
    04:00 +20°C° 0 mm 1 mps 673 mmHg 96%
    05:00 +20°C° 0 mm 1 mps 673 mmHg 96%
    06:00 +19°C° 0 mm 1 mps 673 mmHg 96%
    07:00 +22°C° 0.1 mm 1 mps 674 mmHg 87%
    08:00 +24°C° 0.1 mm 1 mps 675 mmHg 78%
    09:00 +27°C° 0.1 mm 1 mps 675 mmHg 68%
    10:00 +27°C° 0.9 mm 1 mps 675 mmHg 69%
    11:00 +28°C° 0.9 mm 2 mps 675 mmHg 69%
    12:00 +28°C° 0.9 mm 2 mps 675 mmHg 70%
    13:00 +28°C° 1 mm 2 mps 674 mmHg 74%
    14:00 +28°C° 1 mm 2 mps 674 mmHg 79%
    15:00 +27°C° 1 mm 2 mps 673 mmHg 83%
    16:00 +27°C° 0.7 mm 2 mps 673 mmHg 81%
    17:00 +27°C° 0.7 mm 1 mps 673 mmHg 79%
    18:00 +27°C° 0.7 mm 1 mps 673 mmHg 77%
    19:00 +25°C° 0.2 mm 1 mps 673 mmHg 83%
    20:00 +23°C° 0.2 mm 1 mps 673 mmHg 89%
    21:00 +22°C° 0.2 mm 1 mps 673 mmHg 95%
    22:00 +21°C° 0.6 mm 1 mps 673 mmHg 96%
    23:00 +19°C° 0.6 mm 0 mps 673 mmHg 96%

    Tomorrow, 19 January, Saturday

    Time Temperature Precipitation Wind Pressure Humidity
    00:00 +19°C° 0.6 mm 0 mps 673 mmHg 96%
    01:00 +18°C° 0.3 mm 0 mps 672 mmHg 96%
    02:00 +18°C° 0.3 mm 0 mps 672 mmHg 96%
    03:00 +18°C° 0.3 mm 0 mps 671 mmHg 96%
    04:00 +18°C° 0 mm 0 mps 671 mmHg 96%
    05:00 +18°C° 0 mm 0 mps 671 mmHg 96%
    06:00 +17°C° 0 mm 0 mps 671 mmHg 96%
    07:00 +22°C° 0 mm 1 mps 672 mmHg 88%
    08:00 +24°C° 0 mm 1 mps 673 mmHg 80%
    09:00 +26°C° 0 mm 1 mps 674 mmHg 72%
    10:00 +27°C° 0.4 mm 1 mps 674 mmHg 71%
    11:00 +28°C° 0.4 mm 2 mps 674 mmHg 70%
    12:00 +28°C° 0.4 mm 2 mps 674 mmHg 69%
    13:00 +27°C° 1.3 mm 2 mps 673 mmHg 76%
    14:00 +26°C° 1.3 mm 2 mps 673 mmHg 84%
    15:00 +25°C° 1.3 mm 2 mps 672 mmHg 91%
    16:00 +25°C° 0.8 mm 1 mps 672 mmHg 93%
    17:00 +24°C° 0.8 mm 1 mps 672 mmHg 95%
    18:00 +21°C° 0.8 mm 0 mps 671 mmHg 96%
    19:00 +21°C° 0.2 mm 0 mps 672 mmHg 97%
    20:00 +20°C° 0.2 mm 0 mps 672 mmHg 97%
    21:00 +19°C° 0.2 mm 0 mps 672 mmHg 97%
    22:00 +21°C° 0 mm 1 mps 672 mmHg 97%
    23:00 +20°C° 0 mm 1 mps 672 mmHg 97%

    Day after tomorrow, 20 January, Sunday

    Time Temperature Precipitation Wind Pressure Humidity
    00:00 +20°C° 0 mm 1 mps 673 mmHg 97%
    01:00 +20°C° 0 mm 1 mps 672 mmHg 97%
    02:00 +19°C° 0 mm 2 mps 672 mmHg 98%
    03:00 +19°C° 0 mm 2 mps 672 mmHg 98%
    04:00 +19°C° 0 mm 2 mps 672 mmHg 97%
    05:00 +19°C° 0 mm 2 mps 672 mmHg 97%
    06:00 +19°C° 0 mm 2 mps 672 mmHg 96%
    07:00 +20°C° 0 mm 2 mps 673 mmHg 91%
    08:00 +23°C° 0 mm 2 mps 673 mmHg 85%
    09:00 +24°C° 0 mm 3 mps 674 mmHg 80%
    10:00 +25°C° 0.4 mm 2 mps 674 mmHg 77%
    11:00 +26°C° 0.4 mm 2 mps 674 mmHg 75%
    12:00 +27°C° 0.4 mm 2 mps 674 mmHg 73%
    13:00 +26°C° 2.9 mm 1 mps 673 mmHg 77%
    14:00 +26°C° 2.9 mm 1 mps 673 mmHg 82%
    15:00 +26°C° 2.9 mm 1 mps 672 mmHg 87%
    16:00 +26°C° 2.1 mm 1 mps 672 mmHg 89%
    17:00 +25°C° 2.1 mm 1 mps 672 mmHg 90%
    18:00 +25°C° 2.1 mm 1 mps 672 mmHg 92%
    19:00 +24°C° 0.5 mm 1 mps 672 mmHg 94%
    20:00 +22°C° 0.5 mm 1 mps 672 mmHg 95%
    21:00 +21°C° 0.5 mm 1 mps 672 mmHg 97%
    22:00 +20°C° 0.1 mm 1 mps 673 mmHg 97%
    23:00 +20°C° 0.1 mm 1 mps 673 mmHg 98%

    21 January, Monday

    Time Temperature Precipitation Wind Pressure Humidity
    00:00 +20°C° 0.1 mm 1 mps 673 mmHg 98%
    01:00 +20°C° 0 mm 1 mps 672 mmHg 98%
    02:00 +20°C° 0 mm 1 mps 672 mmHg 98%
    03:00 +20°C° 0 mm 1 mps 672 mmHg 98%
    04:00 +19°C° 0 mm 1 mps 672 mmHg 98%
    05:00 +19°C° 0 mm 1 mps 672 mmHg 98%
    06:00 +19°C° 0 mm 1 mps 672 mmHg 98%
    07:00 +21°C° 0.1 mm 1 mps 673 mmHg 92%
    08:00 +23°C° 0.1 mm 2 mps 674 mmHg 86%
    09:00 +25°C° 0.1 mm 2 mps 675 mmHg 79%
    10:00 +26°C° 0.6 mm 2 mps 675 mmHg 77%
    11:00 +27°C° 0.6 mm 3 mps 675 mmHg 74%
    12:00 +28°C° 0.6 mm 3 mps 675 mmHg 72%
    13:00 +28°C° 0.7 mm 3 mps 674 mmHg 71%
    14:00 +28°C° 0.7 mm 3 mps 674 mmHg 71%
    15:00 +29°C° 0.7 mm 2 mps 673 mmHg 71%
    16:00 +28°C° 0.7 mm 2 mps 673 mmHg 75%
    17:00 +27°C° 0.7 mm 2 mps 673 mmHg 80%
    18:00 +26°C° 0.7 mm 1 mps 673 mmHg 85%
    19:00 +25°C° 0.3 mm 1 mps 673 mmHg 89%
    20:00 +23°C° 0.3 mm 1 mps 673 mmHg 93%
    21:00 +22°C° 0.3 mm 1 mps 673 mmHg 97%
    22:00 +21°C° 0.1 mm 1 mps 673 mmHg 97%
    23:00 +21°C° 0.1 mm 1 mps 673 mmHg 98%

    22 January, Tuesday

    Time Temperature Precipitation Wind Pressure Humidity
    00:00 +21°C° 0.1 mm 1 mps 673 mmHg 98%
    01:00 +20°C° 0 mm 1 mps 673 mmHg 98%
    02:00 +20°C° 0 mm 1 mps 672 mmHg 98%
    03:00 +18°C° 0 mm 0 mps 672 mmHg 98%
    04:00 +18°C° 0 mm 0 mps 672 mmHg 98%
    05:00 +18°C° 0 mm 0 mps 673 mmHg 98%
    06:00 +17°C° 0 mm 0 mps 673 mmHg 98%
    07:00 +22°C° 0 mm 1 mps 674 mmHg 89%
    08:00 +24°C° 0 mm 1 mps 675 mmHg 81%
    09:00 +27°C° 0 mm 1 mps 676 mmHg 73%
    10:00 +28°C° 0 mm 1 mps 675 mmHg 65%
    11:00 +30°C° 0 mm 1 mps 675 mmHg 57%
    12:00 +32°C° 0 mm 2 mps 675 mmHg 48%
    13:00 +32°C° 0 mm 2 mps 675 mmHg 47%
    14:00 +34°C° 0 mm 2 mps 675 mmHg 46%
    15:00 +34°C° 0 mm 2 mps 674 mmHg 45%
    16:00 +32°C° 0 mm 2 mps 674 mmHg 51%
    17:00 +31°C° 0 mm 1 mps 674 mmHg 56%
    18:00 +29°C° 0 mm 1 mps 673 mmHg 62%
    19:00 +27°C° 0.2 mm 1 mps 673 mmHg 69%
    20:00 +25°C° 0.2 mm 1 mps 673 mmHg 77%
    21:00 +21°C° 0.2 mm 0 mps 673 mmHg 85%
    22:00 +21°C° 0.1 mm 0 mps 673 mmHg 87%
    23:00 +20°C° 0.1 mm 0 mps 673 mmHg 90%

    23 January, Wednesday

    Time Temperature Precipitation Wind Pressure Humidity
    00:00 +20°C° 0.1 mm 0 mps 673 mmHg 92%
    01:00 +19°C° 0 mm 0 mps 673 mmHg 94%
    02:00 +19°C° 0 mm 0 mps 673 mmHg 95%
    03:00 +18°C° 0 mm 0 mps 673 mmHg 96%
    04:00 +18°C° 0 mm 0 mps 673 mmHg 96%
    05:00 +18°C° 0 mm 0 mps 673 mmHg 96%
    06:00 +18°C° 0 mm 0 mps 673 mmHg 97%
    07:00 +20°C° 0.4 mm 0 mps 674 mmHg 91%
    08:00 +23°C° 0.4 mm 0 mps 675 mmHg 85%
    09:00 +25°C° 0.4 mm 0 mps 675 mmHg 80%
    10:00 +26°C° 1.4 mm 0 mps 675 mmHg 77%
    11:00 +29°C° 1.4 mm 1 mps 675 mmHg 75%
    12:00 +30°C° 1.4 mm 1 mps 675 mmHg 73%
    13:00 +30°C° 0.7 mm 1 mps 674 mmHg 68%
    14:00 +30°C° 0.7 mm 1 mps 674 mmHg 63%
    15:00 +30°C° 0.7 mm 1 mps 673 mmHg 58%
    16:00 +30°C° 0 mm 1 mps 673 mmHg 59%
    17:00 +30°C° 0 mm 1 mps 673 mmHg 60%
    18:00 +30°C° 0 mm 1 mps 673 mmHg 61%
    19:00 +27°C° 1.1 mm 1 mps 673 mmHg 71%
    20:00 +23°C° 1.1 mm 0 mps 673 mmHg 82%
    21:00 +21°C° 1.1 mm 0 mps 673 mmHg 92%
    22:00 +20°C° 1.7 mm 0 mps 673 mmHg 94%
    23:00 +22°C° 1.7 mm 1 mps 673 mmHg 95%
    Show more